Regional Weather Roundup
Issued by NWS Wakefield, VA

Home | Current Version | Previous Version | Graphics & Text | Print | Product List | Glossary On
Versions: 1 2 3 4 5 6 7 8 9 10 11 12 13 14 15 16 17 18 19 20 21 22 23 24 25 26 27 28 29 30 31 32 33 34 35 36 37 38 39 40 41 42 43 44 45 46 47 48 49 50
000
ASUS41 KAKQ 011015
RWRAKQ

REGIONAL WEATHER ROUNDUP
NATIONAL WEATHER SERVICE WAKEFIELD VA
600 AM EDT MON JUN 01 2015

Note: "fair" indicates few or no clouds below 12,000 feet with no
significant weather and/or obstructions to visibility. * = Denotes
station may not report precipitation (e.g., rain,snow,etc.),
thunder or fog.

VAZ042-051-052>054-056-011100-
NORTHERN VIRGINIA

CITY           SKY/WX    TMP DP  RH WIND       PRES   REMARKS
WASH NATIONAL  CLOUDY    75  68  78 SW3       30.01R
DULLES         CLOUDY    71  67  87 S3        30.01R
FORT BELVOIR   MOCLDY    70  68  93 CALM      30.01R
QUANTICO       MOCLDY    71  66  84 SW7       30.01S
FREDERICKSBRG* PTCLDY    72  71  95 S7        30.01S
STAFFORD*      PTCLDY    68  66  93 CALM      30.05S
WARRENTON      MOCLDY    69  68  98 CALM      30.01R
CULPEPER*      PTCLDY    64  64  99 CALM      30.02S
MANASSAS*      PTCLDY    68  68 100 CALM      30.01S
LEESBURG*      MOCLDY    72  70  94 CALM      30.02S
WINCHESTER     PTCLDY    70  64  83 SW3       30.02S
FRONT ROYAL*   FAIR      66  64  94 S5        30.02R
LURAY*         FAIR      66  66 100 CALM      30.04R
$$

VAZ048-049-060>072-079>083-011100-
CENTRAL AND SOUTH CENTRAL VIRGINIA

CITY           SKY/WX    TMP DP  RH WIND       PRES   REMARKS
RICHMOND       MOCLDY    72  65  78 S9        30.04S
CHESTERFIELD*  NOT AVBL
PETERSBURG*    PTCLDY    69  69 100 S3        30.06R
HANOVER        PTCLDY    71  65  81 S9        30.05R
TAPPAHANNOCK*  PTCLDY    70  64  79 S5        30.05R
QUINTON*       FAIR      71  66  84 S5        30.05R
CHARLOTTSVILLE PTCLDY    65  64  97 CALM      30.03R
GORDONSVILLE*  FAIR      66  66  98 CALM      30.02S
ORANGE*        PTCLDY    68  66  94 CALM      30.03S
LOUISA*        MOCLDY    70  64  83 S3        30.02S
BUMPASS*       FAIR      69  66  88 CALM      30.03R
FARMVILLE*     PTCLDY    68  68  98 CALM      30.03S
CREWE*         CLOUDY    71  66  86 CALM      30.04S
FORT PICKETT*  FAIR      67  65  95 S5        30.05S
CHASE CITY*    CLOUDY    71  71 100 CALM      30.06S
CLARKSVILLE*   NOT AVBL
SOUTH HILL*    MOCLDY    69  65  90 S5        30.12R
LAWRENCEVILLE* CLOUDY    68  66  94 S3        30.06S
EMPORIA*       CLEAR     68  64  88 SE3       30.08S
$$

VAZ088>098-011100-
SOUTHEAST VIRGINIA

CITY           SKY/WX    TMP DP  RH WIND       PRES   REMARKS
NORFOLK        CLOUDY    72  67  84 SW10      30.07S
VIRGINIA BEACH PTCLDY    74  68  81 SW9       30.07S
NORFOLK NAVAL  MOCLDY    76  68  76 SW8       30.09R
WEST POINT*    CLOUDY    76  65  70 S6        30.07R
SALUDA*        CLOUDY    73  67  82 S12G18    30.04S
NEWPORT NEWS   CLOUDY    77  68  73 SW13      30.07R
LANGLEY AFB    MOCLDY    72  69  88 S12       30.06R
FORT EUSTIS    MOCLDY    73  73 100 S8        30.05R
WILLIAMSBURG*  PTCLDY    75  70  83 SW6       30.07S
HR EXEC AP*    PTSUNNY   70  66  88 SW5       30.10R
FRANKLIN*      MOCLDY    69  67  94 S7        30.08S
WAKEFIELD      MOCLDY    71  67  87 S5        30.06S
$$

VAZ020-022-025-037-045-011100-
WEST CENTRAL AND SOUTHWEST VIRGINIA

CITY           SKY/WX    TMP DP  RH WIND       PRES   REMARKS
STAUNTON*      MOCLDY    66  64  96 CALM      30.07S
WAYNESBORO*    FAIR      62  62 100 CALM      30.06S
HOT SPRINGS VA CLEAR     61  61 100 W10       30.14S
LYNCHBURG      CLEAR     63  62  97 SW3       30.06S
DANVILLE       PTCLDY    65  63  93 CALM      30.05S
SOUTH BOSTON*  PTSUNNY   68  67  94 CALM      30.05S
MARTINSVILLE   CLEAR     60  60 100 CALM      30.09R FOG
ROANOKE        MOCLDY    66  62  87 W9        30.08R
BLACKSBURG     PTCLDY    60  59  97 CALM      30.14R
DUBLIN*        PTCLDY    60  60 100 CALM      30.12S FOG
MARION*        FOG       59  58  96 CALM      30.15R VSB 1/4
HILLSVILLE*    MOCLDY    58  58  99 S5        30.15S FOG
RICHLANDS*     FAIR      63  60  92 CALM      30.12R
WISE*          PTCLDY    61  59  94 CALM      30.12S
ABINGDON*      MOCLDY    64  63  96 E5        30.09S
$$

MDZ021>025-VAZ099-100-011100-
SOUTHERN MARYLAND AND THE DELMARVA PENINSULA

CITY           SKY/WX    TMP DP  RH WIND       PRES   REMARKS
PATUXENT RIVER MOCLDY    73  66  78 SW10      30.02R
BAY BRIDGE APT   N/A    N/A N/A N/A S7        30.02R
LEONARDTOWN    PTCLDY    72  64  78 SW6       30.05R
DOVER          CLOUDY    73  73 100 S3        30.00S
GEORGETOWN     PTCLDY    71  68  90 S8        30.04S
EASTON         PTCLDY    74  70  87 SW7       30.05S
CAMBRIDGE      MOCLDY    77  68  73 S5        30.03R
SALISBURY      PTCLDY    69  67  93 S6        30.04S
OCEAN CITY     NOT AVBL
WALLOPS ISLAND PTCLDY    68  68 100 S12       30.07R
ACCOMACK*      PTCLDY    70  70 100 S8        30.06S
$$

NCZ012>017-030>032-011100-
NORTH CENTRAL AND EASTERN NORTH CAROLINA

CITY           SKY/WX    TMP DP  RH WIND       PRES   REMARKS
ROANOKE RAPIDS PTSUNNY   68  66  94 S6        30.07S
RALEIGH        MOCLDY    72  66  81 S6        30.07S
ELIZABETH CITY CLEAR     70  69  97 S3        30.09R
AHOSKIE*       CLEAR     67  66  97 CALM      30.08F
EDENTON*       PTCLDY    72  69  89 SW8       30.10R
CURRITUCK*     CLEAR     71  69  90 CALM      30.10R
KILL DEVIL HLS CLOUDY    74  68  81 SW3       30.09R
MANTEO         PTCLDY    74  69  83 SW8       30.10R
CAPE HATTERAS  CLEAR     73  66  78 SW5       30.10R
TARBORO*       FAIR      69  67  94 CALM      30.09S
GOLDSBORO      CLEAR     68  67  96 CALM      30.07S
WASHINGTON     CLEAR     69  68  94 S3        30.10S
GREENVILLE     CLEAR     70  68  94 S5        30.11S
NEW BERN       CLEAR     65  63  93 CALM      30.11R FOG
WILMINGTON     CLEAR     68  66  93 NE3       30.09R
$$

VAZ048-011100-
ELSEWHERE

CITY           SKY/WX    TMP DP  RH WIND       PRES   REMARKS
HARRISBURG PA  MOCLDY    68  65  90 E3        30.00R
BALTIMORE      LGT RAIN  71  69  93 S3        30.00R
ANNAPOLIS      LGT RAIN  74  67  78 S6        30.01R
ANDREWS AFB    CLOUDY    72  68  89 S5        30.01R
PHILADELPHIA   RAIN      70  66  88 S6        30.03S FOG
HENDERSON NC   PTCLDY    69  64  82 S6        30.07R
GREENSBORO     PTCLDY    67  65  93 SW6       30.06R
ROCKY MOUNT    MOCLDY    70  68  93 S7        30.08S
$$

VAZ100-011100-
MARINE

STATION/POSITION TIME  TEMP    WIND        PRES    WAVE   SWELL
                       AIR SEA DIR/SP/G            HT/PER HT/PER
                 (UTC) (F)     (DEG/KT/KT) (MB)    (FT/S) (FT/S)
15NM E FENWICK I 0950   69 65              1017.2R   4/ 9
THOMAS POINT MD  1000   72 72  180/ 11/ 12 1016.8R
GOOSES REEF MD   1000   73 71  210/ 10/ 12 1017.5R   2/ 3
STINGRAY PT      1000   75 73  220/ 14/ 19 1017.3F   1/ 2
JAMESTOWN VA     1000   72 79  180/  6/  8   N/A
CHESAPEAKE LGHT  0900   69     210/ 16/ 16 1018.7R
CAPE HENRY BUOY  0928      64                N/A     3/ 9
1ST LANDING BUOY 1000      71              1018.0R
CAPE CHARLES BUO 0926      64                N/A     3/ 9   2/ 9
OFFSHORE WE BUOY 0911      68                N/A     3/ 8   3/ 8
64NM E OF VA BCH 0950   72 71  200/  6/  8 1018.7S   3/10   3/10
44100 DUCK FRF   0924      73                N/A     3/ 9
44056 DUCK FRF   0911      60                N/A     3/ 9
DIAMOND SHLS NC  0950   77 80  200/  6/  8 1019.1R   4/ 9   3/ 9
CAPE LOOKOUT NC  1000   74     190/  3/  3 1019.0R
$$


USA.gov is the U.S. government's official web portal to all federal, state and local government web resources and services.